User: anonymous   Login
Location: Unspecified
(0.0000°N, 0.0000°E)
Time: 09:11:49
(UTC+00:00)
Language:

SENTINEL 2B - Orbit

View from above orbital plane
View from above orbital plane
View from above satellite
View from above satellite

Ground track
Ground track

The orbit data is extracted from the following two-line orbital elements,

1 42063U 17013A   21135.11659123  .00000032  00000-0  28793-4 0  9995
2 42063  98.5678 210.5717 0001150  92.0034 268.1294 14.30814652218803
Epoch (UTC): 15 May 2021 02:47:53
Eccentricity: 0.0001150
inclination: 98.5678°
perigee height: 788 km
apogee height: 790 km
right ascension of ascending node: 210.5717°
argument of perigee: 92.0034°
revolutions per day: 14.30814652
mean anomaly at epoch: 268.1294°
orbit number at epoch: 21880

The dashed part of the orbit path shows where the satellite is in the earth's shadow,  

DLR